Wind_Speed
48 49 49 48 49 49 49 49 50 49 48 48 48 47 47 47 47 47 48 49 48 47 47 48 49 50 51 51 50 50 50 49 49 48 47 47 47 46
49 50 50 49 50 50 50 50 50 49 49 48 48 48 47 47 48 48 49 49 49 48 48 49 50 51 51 51 50 50 50 49 48 48 47 47 47 47
50 50 51 51 51 51 52 52 50 50 50 48 48 49 48 48 48 49 50 49 49 49 50 51 51 51 51 51 51 50 49 49 48 48 48 47 47 47
49 49 50 50 50 51 51 51 51 51 50 49 49 50 50 50 49 49 48 48 50 51 52 52 52 52 52 52 52 50 49 48 47 48 48 47 47 47
48 48 49 49 49 49 49 49 49 49 50 50 49 50 50 51 51 49 48 48 49 51 51 51 52 52 51 51 50 50 48 47 47 47 47 46 46 45
48 48 48 47 47 48 48 48 48 48 49 50 50 51 50 51 51 49 48 49 49 50 50 50 50 49 49 49 49 48 47 46 46 46 45 44 44 44
46 47 46 46 46 47 48 48 48 49 49 50 50 50 51 51 49 50 51 50 50 49 49 49 48 48 49 48 48 47 46 46 45 45 44 43 43 43
45 45 46 46 47 47 48 48 49 49 49 50 50 50 49 49 49 49 50 50 49 48 48 48 48 48 48 47 47 46 45 45 44 44 42 41 42 42
44 44 45 46 46 47 48 48 48 47 48 48 49 47 47 48 48 49 49 48 49 48 47 47 47 47 46 45 45 44 43 42 42 41 40 41 41 41
43 44 44 45 45 46 47 47 47 47 48 48 47 46 45 46 47 47 47 47 47 47 46 45 44 44 44 44 44 43 41 40 40 39 39 39 39 39
42 44 45 45 46 46 46 46 46 46 47 47 46 45 44 45 46 46 45 45 45 45 45 44 42 42 42 42 41 40 40 39 38 37 37 37 37 36
43 43 44 44 45 46 46 46 45 45 44 44 43 42 43 44 45 45 45 44 44 43 44 44 43 42 41 40 39 39 38 37 35 34 34 35 35 34
43 43 43 43 44 45 45 45 44 44 43 42 42 42 42 43 44 44 44 44 43 42 43 43 43 42 41 39 37 36 35 34 32 32 33 33 33 33
43 43 43 43 43 43 43 43 43 43 42 42 41 41 42 42 43 44 44 44 43 43 43 42 41 40 39 37 35 33 33 32 32 32 32 33 32 30
42 41 41 41 41 41 41 41 41 41 41 41 40 40 41 42 42 42 42 43 43 42 41 40 40 39 37 35 34 32 32 32 32 32 31 30 30 29
41 41 41 40 40 40 40 40 40 40 39 39 39 39 40 41 40 40 40 41 40 40 39 39 37 36 34 33 32 32 32 31 30 31 30 29 29 28
41 40 40 40 40 39 39 39 39 38 37 38 39 39 39 39 39 39 39 38 38 38 37 36 35 33 32 32 31 31 31 30 29 28 28 27 27 26
39 39 39 39 39 38 38 38 38 37 37 37 38 38 38 38 38 38 38 37 36 35 35 35 34 32 31 30 30 30 29 28 28 28 27 26 25 25
38 38 38 38 37 37 37 37 37 37 36 36 37 37 37 37 37 37 36 35 35 34 34 33 33 31 30 29 28 28 27 26 25 25 25 24 23 23
37 37 36 37 36 36 36 36 37 37 36 37 37 37 37 37 36 35 35 34 33 32 32 32 31 29 28 27 26 25 25 24 22 22 22 21 21 21
36 36 36 36 36 36 36 37 37 37 37 36 36 36 36 36 36 35 34 33 32 31 30 30 29 28 27 25 24 23 23 22 21 20 19 18 18 18
34 34 34 35 35 36 36 37 38 38 37 37 37 36 35 35 34 33 32 31 30 30 29 28 27 26 24 23 22 21 21 20 19 18 17 17 17 16
32 32 33 33 34 35 36 36 36 37 37 36 35 34 33 32 32 31 30 30 29 29 27 26 24 23 22 22 21 20 19 18 17 16 16 16 16 15
Wind_Direction
274 275 276 276 276 277 278 278 279 280 281 283 285 285 286 287 287 289 290 290 291 290 291 292 292 293 293 291 290 289 288 287 287 286 286 285 284 283
274 274 275 276 275 277 278 279 279 280 281 282 283 285 286 286 288 288 290 289 289 289 291 292 293 293 292 291 290 289 288 288 287 285 285 285 283 282
275 276 276 276 276 277 278 278 278 279 280 281 283 285 285 286 288 288 289 288 287 289 291 292 294 293 292 290 290 290 289 288 286 286 285 285 284 283
276 277 277 277 278 277 278 279 279 279 280 281 283 284 284 284 287 287 287 287 288 290 291 292 293 293 291 291 291 290 290 288 287 286 285 285 284 283
276 277 277 277 277 278 278 280 280 280 280 281 282 283 284 285 286 287 287 288 290 291 292 292 292 292 291 291 291 290 289 288 288 287 285 284 284 283
276 277 278 278 279 279 279 280 280 281 281 281 281 283 283 285 285 285 287 289 291 292 291 291 292 293 292 292 292 291 288 287 288 288 285 283 282 282
276 277 277 278 280 280 280 280 280 281 281 280 281 283 284 284 284 285 286 289 291 292 291 291 292 293 293 293 293 291 288 288 288 288 286 284 282 282
277 278 277 278 279 281 281 280 281 281 280 281 281 282 283 283 284 286 287 288 290 291 290 290 291 292 293 293 293 291 289 289 288 288 286 285 284 284
278 278 278 279 280 281 282 281 280 279 280 281 282 281 283 283 285 287 288 289 290 290 290 290 291 293 293 293 294 293 291 290 289 287 287 287 286 285
278 279 279 279 280 280 281 281 279 280 281 281 281 280 282 284 286 287 288 289 290 290 290 292 292 293 293 294 294 292 292 291 289 287 287 287 287 286
279 280 280 279 280 280 281 280 279 280 281 281 280 280 283 286 288 288 289 290 290 290 290 291 292 293 294 294 293 292 292 291 289 288 287 287 288 288
281 281 280 280 281 282 281 280 280 280 282 281 281 282 284 286 288 289 290 291 292 292 291 292 293 293 294 293 293 292 291 290 289 288 288 288 289 290
282 282 281 281 282 282 281 281 280 280 281 281 281 282 284 287 289 291 292 293 293 292 292 293 294 294 295 294 292 291 289 290 290 290 290 290 291 291
282 282 281 281 281 281 282 281 281 281 281 282 283 283 285 288 291 291 291 292 293 292 293 293 294 295 295 294 292 291 289 289 289 290 290 290 291 292
281 280 280 279 280 280 281 282 282 283 283 282 283 284 287 290 291 290 290 291 292 293 293 293 294 295 295 293 293 291 290 290 290 289 289 289 289 288
281 280 279 278 279 281 282 282 283 284 284 284 284 285 288 290 290 290 290 291 291 292 292 293 293 293 293 293 292 291 291 290 289 289 288 287 288 289
280 280 279 278 280 282 283 284 285 285 285 286 286 286 288 289 289 289 290 290 290 290 290 291 291 291 291 291 291 291 291 290 289 288 287 287 287 288
280 279 278 279 280 281 283 284 285 285 284 285 285 284 286 287 289 289 289 289 289 289 289 289 289 288 288 288 287 288 289 289 287 285 285 285 286 288
280 278 278 278 280 281 282 283 284 284 282 283 284 284 285 287 289 290 290 288 288 288 288 288 287 286 286 286 286 287 288 287 286 286 287 286 287 290
281 279 278 279 280 282 282 282 283 283 283 283 284 284 285 287 288 289 289 288 288 288 287 288 286 285 285 286 286 286 287 288 287 287 287 285 287 290
279 279 279 280 281 282 283 283 284 284 283 283 285 285 286 288 287 287 288 288 288 288 288 288 286 284 284 283 284 284 285 285 286 287 287 286 287 288
279 278 279 279 280 281 282 283 284 285 284 283 285 286 287 287 287 287 287 286 286 287 287 287 285 284 282 282 282 283 285 284 285 288 288 288 289 288
280 280 280 281 281 281 282 284 284 285 284 284 285 286 286 286 287 286 286 285 285 286 286 284 282 281 282 283 282 282 283 283 283 285 286 287 289 292
Height
5704 5704 5703 5703 5702 5702 5701 5700 5700 5700 5700 5699 5696 5694 5692 5689 5687 5684 5681 5678 5675 5672 5669 5667 5663 5660 5656 5652 5648 5645 5642 5639 5636 5633 5631 5628 5626 5624
5691 5691 5690 5690 5689 5689 5688 5687 5686 5686 5686 5686 5684 5681 5679 5677 5674 5671 5668 5665 5663 5660 5656 5654 5650 5646 5642 5638 5634 5631 5628 5625 5622 5619 5617 5614 5612 5610
5679 5678 5677 5676 5676 5675 5674 5673 5673 5673 5672 5673 5671 5668 5666 5664 5662 5659 5656 5653 5650 5647 5643 5640 5636 5632 5628 5624 5620 5617 5614 5611 5608 5605 5603 5600 5598 5596
5665 5665 5664 5663 5662 5661 5661 5660 5660 5659 5659 5659 5658 5656 5654 5652 5650 5647 5644 5640 5637 5634 5630 5626 5622 5618 5614 5610 5606 5603 5600 5597 5594 5592 5589 5587 5585 5583
5653 5652 5651 5650 5649 5648 5648 5647 5646 5646 5645 5645 5644 5643 5641 5639 5637 5635 5631 5628 5624 5620 5616 5612 5608 5604 5600 5596 5592 5589 5586 5584 5581 5578 5575 5573 5571 5569
5640 5639 5639 5638 5637 5636 5635 5634 5633 5632 5632 5631 5631 5630 5628 5626 5624 5622 5619 5615 5611 5607 5603 5598 5594 5590 5586 5583 5579 5576 5573 5570 5567 5565 5562 5560 5558 5556
5628 5627 5627 5626 5625 5624 5623 5622 5621 5620 5618 5617 5617 5616 5615 5613 5611 5609 5606 5603 5599 5595 5591 5586 5582 5578 5573 5569 5566 5562 5559 5557 5554 5551 5549 5546 5545 5543
5617 5616 5615 5614 5612 5611 5610 5609 5608 5607 5606 5605 5604 5603 5602 5600 5598 5595 5592 5590 5588 5584 5579 5574 5569 5565 5561 5557 5553 5550 5547 5544 5541 5539 5536 5534 5532 5530
5605 5604 5602 5601 5600 5599 5598 5597 5595 5594 5593 5592 5591 5590 5589 5587 5586 5583 5579 5576 5573 5569 5566 5562 5557 5553 5549 5545 5541 5538 5535 5532 5529 5527 5524 5522 5520 5519
5593 5592 5591 5589 5588 5587 5586 5585 5583 5582 5580 5579 5579 5578 5576 5574 5572 5569 5567 5564 5560 5555 5551 5550 5546 5542 5538 5533 5529 5526 5523 5520 5518 5515 5513 5511 5509 5507
5582 5580 5579 5578 5577 5575 5574 5573 5572 5570 5567 5566 5565 5564 5563 5561 5558 5556 5554 5551 5548 5544 5540 5537 5535 5532 5528 5523 5518 5515 5512 5509 5507 5505 5502 5500 5498 5497
5571 5569 5567 5566 5565 5563 5562 5561 5560 5558 5556 5554 5553 5551 5550 5548 5546 5544 5541 5538 5535 5533 5529 5526 5523 5519 5518 5514 5509 5505 5502 5499 5497 5494 5492 5490 5488 5487
5559 5557 5556 5554 5553 5552 5550 5549 5548 5546 5544 5543 5541 5540 5538 5536 5533 5531 5528 5526 5523 5521 5518 5515 5511 5507 5504 5502 5499 5495 5492 5489 5487 5485 5483 5481 5479 5477
5548 5546 5544 5543 5542 5540 5539 5537 5536 5534 5532 5531 5530 5529 5527 5524 5522 5519 5516 5513 5511 5509 5505 5502 5500 5497 5494 5491 5489 5486 5483 5480 5478 5476 5474 5472 5470 5467
5536 5535 5533 5532 5530 5529 5527 5525 5524 5522 5521 5520 5519 5517 5515 5513 5510 5508 5505 5502 5499 5496 5494 5491 5489 5486 5483 5481 5479 5476 5474 5472 5469 5467 5465 5463 5462 5460
5524 5523 5522 5520 5519 5517 5516 5514 5512 5511 5510 5509 5508 5506 5504 5501 5499 5497 5495 5492 5489 5486 5483 5480 5478 5476 5474 5471 5469 5467 5465 5463 5461 5459 5457 5455 5453 5452
5512 5511 5510 5509 5508 5506 5505 5503 5502 5500 5499 5498 5497 5495 5493 5491 5488 5486 5483 5481 5479 5476 5474 5471 5469 5466 5465 5462 5460 5458 5456 5454 5452 5451 5449 5448 5446 5444
5501 5500 5499 5498 5496 5495 5494 5493 5491 5490 5488 5487 5486 5484 5483 5480 5478 5475 5473 5471 5469 5466 5464 5462 5460 5458 5456 5454 5452 5450 5448 5446 5444 5443 5441 5440 5439 5438
5490 5489 5488 5487 5486 5484 5483 5482 5481 5479 5478 5476 5475 5474 5472 5470 5467 5465 5463 5461 5459 5456 5454 5452 5450 5448 5447 5446 5444 5442 5440 5438 5437 5435 5434 5433 5433 5432
5479 5478 5477 5476 5475 5474 5473 5471 5470 5468 5467 5466 5465 5463 5461 5459 5457 5455 5453 5451 5449 5447 5445 5443 5441 5440 5439 5438 5436 5435 5433 5431 5430 5429 5428 5427 5426 5425
5468 5467 5466 5465 5464 5463 5462 5461 5460 5458 5456 5455 5454 5452 5450 5448 5447 5445 5443 5442 5440 5439 5437 5435 5433 5432 5431 5430 5429 5428 5426 5425 5424 5423 5422 5422 5421 5420
5458 5456 5455 5454 5453 5452 5451 5450 5449 5447 5445 5444 5443 5441 5440 5438 5437 5435 5434 5433 5432 5430 5429 5427 5426 5425 5424 5423 5422 5421 5420 5419 5418 5417 5416 5416 5415 5415
5447 5446 5445 5444 5443 5442 5441 5439 5438 5437 5435 5433 5432 5430 5429 5428 5427 5426 5425 5424 5423 5422 5421 5420 5419 5418 5418 5417 5416 5415 5414 5414 5413 5413 5412 5411 5410 5410